Flag for U.S.A. Weather past 2 weeks in Rancho Cucamonga, California, U.S.A.

Now
72 °F

Passing clouds.


Feels Like: 74 °F
Forecast: 67 / 92 °F
Wind: No wind

Location: Ontario International Airport

Current Time: Jul 26, 2014 at 5:07:04 AM

Latest Report: Jul 26, 2014 at 3:53 AM


Visibility: 9 mi

Pressure: 29.87 "Hg

Humidity: 73%

Dew point: 63 °F

Location of Rancho CucamongaLocation

Historic Weather in Rancho Cucamonga — Graph

°F

Rancho Cucamonga temperature yesterday

Maximum temperature yesterday: 96 °F (at 3:53 PM)
Minimum temperature yesterday: 70 °F (at 5:53 AM)
Average temperature yesterday: 81 °F

Past Weeks' High & Low Weather Summary

 TemperatureHumidityPressure
High104 °F (Jul 24, 2:53 PM)87% (Jul 11, 4:53 AM)30.07 "Hg (Jul 11, 4:53 AM)
Low62 °F (Jul 18, 3:53 AM)11% (Jul 24, 12:53 PM)29.68 "Hg (Jul 24, 5:53 PM)
Average76 °F58%29.92 "Hg
* Reported Jul 11 3:53 AM — Jul 26 3:53 AM, Rancho Cucamonga, Weather by CustomWeather, © 2014

Note: Actual official high and low records may vary slightly from our data, if they occured in-between our weather recording intervals... More about our weather records

Advertising

Rancho Cucamonga weather history for previous 24 hours

 ConditionsComfort  
Time TempWeatherWind HumidityBarometerVisibility
3:53 AM
Jul 26
72 °FPassing clouds.No wind73%29.87 "Hg9 mi
2:53 AM73 °FPartly cloudy.3 mph71%29.87 "Hg9 mi
1:53 AM73 °FPassing clouds.No wind69%29.88 "Hg9 mi
12:53 AM74 °FPassing clouds.5 mph67%29.87 "Hg9 mi
11:53 PM
Jul 25
76 °FPassing clouds.No wind56%29.88 "Hg10 mi
10:53 PM76 °FPassing clouds.7 mph60%29.88 "Hg10 mi
9:53 PM78 °FPassing clouds.12 mph56%29.88 "Hg10 mi
8:53 PM79 °FPartly sunny.8 mph54%29.87 "Hg10 mi
7:53 PM84 °FPartly sunny.12 mph38%29.83 "Hg10 mi
6:53 PM85 °FPartly sunny.14 mph43%29.82 "Hg10 mi
5:53 PM90 °FBroken clouds.15 mph38%29.80 "Hg10 mi
4:53 PM94 °FBroken clouds.14 mph32%29.80 "Hg10 mi
3:53 PM96 °FBroken clouds.13 mph26%29.81 "Hg10 mi
2:53 PM95 °FBroken clouds.9 mph28%29.83 "Hg10 mi
1:53 PM95 °FBroken clouds.10 mph30%29.84 "Hg10 mi
12:53 PM93 °FBroken clouds.9 mph34%29.83 "Hg10 mi
11:53 AM90 °FScattered clouds.9 mph33%29.83 "Hg10 mi
10:53 AM86 °FScattered clouds.5 mph39%29.84 "Hg10 mi
9:53 AM80 °FScattered clouds.3 mph51%29.85 "Hg10 mi
8:53 AM75 °FScattered clouds.3 mph64%29.86 "Hg10 mi
7:53 AM71 °FScattered clouds.No wind73%29.85 "Hg10 mi
6:53 AM70 °FPassing clouds.5 mph76%29.84 "Hg10 mi
5:53 AM70 °FPassing clouds.9 mph71%29.82 "Hg10 mi
Weather by CustomWeather, © 2014

See weather overviewHow to use our weather pages